Location: Berg
(47.2344°N, 9.5296°E)
Time: 22:39:59
(UTC+00:00)

AAUSAT CUBESAT 2 - Pass Details

Date: 04 December 2021
Orbit: 571 x 586 km, 97.5° (Epoch: 19 January)

Event Time Altitude Azimuth Distance (km) Brightness Sun altitude
Rises 16:18:04 0° 191° (S) 2,768 ? -7.6°
Reaches altitude 10° 16:20:25 10° 202° (SSW) 1,874 ? -7.9°
Maximum altitude 16:24:00 30° 264° (W) 1,042 ? -8.5°
Drops below altitude 10° 16:27:37 10° 327° (NNW) 1,887 ? -9.1°
Sets 16:30:00 0° 338° (NNW) 2,790 ? -9.4°
